This demonstration page uses our WeatherBlox Daily Observations layout. Learn more.

41.55636, -103.73856

Hourly Observations for August 12, 2020

Temp ( °F °C ) Dew Point ( °F °C ) Humidity (%) Winds ( mph kmh ) Pressure ( in mb ) Visibility ( mi km ) Precip ( " mm )
12:58 am 00:58 Mostly Clear 88 31.3 37 2.7 16 16 SSW 7 11 29.75 1008 10 16.0934 0 0
1:58 am 01:58 Clear 77 24.9 43 6 30 30 E 14 22 29.78 1009 10 16.0934 0 0
2:58 am 02:58 Mostly Clear 76 24.4 42 5.8 30 30 SSE 28 44 29.81 1010 10 16.0934 0 0
3:58 am 03:58 Clear 71 21.9 44 6.6 37 37 S 21 33 29.84 1011 10 16.0934 0 0
4:58 am 04:58 Mostly Cloudy 71 21.7 44 6.5 37 37 SSE 15 24 29.86 1011 10 16.0934 0 0
5:58 am 05:58 Mostly Cloudy 68 20.1 45 7.3 44 44 SE 10 17 29.88 1012 10 16.0934 0 0
6:58 am 06:58 Clear 65 18.2 46 7.8 51 51 SSE 14 22 29.87 1012 10 16.0934 0 0
7:58 am 07:58 Partly Cloudy 64 17.8 47 8.3 54 54 SE 16 26 29.86 1011 10 16.0934 0 0
8:58 am 08:58 Clear 67 19.7 55 12.9 65 65 SSW 23 37 29.83 1010 10 16.0934 0 0
9:58 am 09:58 Clear 68 20.2 57 14 68 68 S 37 59 29.82 1010 10 16.0934 0 0
10:58 am 10:58 Clear 67 19.5 57 13.9 70 70 SSW 35 56 29.83 1010 10 16.0934 0 0
11:58 am 11:58 Clear 66 18.9 56 13.6 71 71 SSW 32 52 29.85 1011 10 16.0934 0 0
12:58 pm 12:58 Sunny 66 18.8 55 12.9 69 69 SSW 38 61 29.88 1012 10 16.0934 0 0
1:58 pm 13:58 Sunny 69 20.4 53 11.8 58 58 SSW 38 61 29.9 1012 10 16.0934 0 0
2:58 pm 14:58 Sunny 73 22.5 52 10.9 48 48 SSW 32 52 29.88 1012 10 16.0934 0 0
3:58 pm 15:58 Sunny 76 24.3 51 10.5 42 42 SW 36 57 29.89 1012 10 16.0934 0 0
4:58 pm 16:58 Sunny 81 27.2 49 9.7 33 33 SW 28 44 29.89 1012 10 16.0934 0 0
5:58 pm 17:58 Sunny 85 29.5 51 10.4 31 31 SW 21 33 29.87 1011 10 16.0934 0 0
6:58 pm 18:58 Sunny 89 31.4 49 9.2 25 25 SW 8 13 29.85 1011 10 16.0934 0 0
7:58 pm 19:58 Sunny 91 32.5 44 6.6 20 20 SW 13 20 29.82 1010 10 16.0934 0 0
8:58 pm 20:58 Sunny 92 33.4 32 0.2 12 12 SW 10 17 29.79 1009 10 16.0934 0 0
9:58 pm 21:58 Windy with Storms Likely 84 29 31 -0.4 15 15 W 23 37 29.88 1012 10 16.0934 0 0
10:58 pm 22:58 Sunny 90 32.4 32 0.1 13 13 NNE 3 6 29.8 1009 10 16.0934 0 0
11:58 pm 23:58 Mostly Cloudy with Nearby Thunderstorms 87 30.3 37 2.5 17 17 SSE 20 31 29.82 1010 10 16.0934 0 0

Powered by AerisWeather